Tracking 31027 objects as of 19-Jul-2025
HD Live streaming from Space Station
objects crossing your sky now

STARLINK-1407

Track STARLINK-1407 now!
10-day predictions
STARLINK-1407 is classified as:


NORAD ID: 45703
Int'l Code: 2020-035AY
Perigee: 484.8 km
Apogee: 492.8 km
Inclination: 53.0 °
Period: 94.2 minutes
Semi major axis: 6859 km
RCS: Unknown
Launch date: June 4, 2020
Source: United States (US)
Launch site: AIR FORCE EASTERN TEST RANGE (AFETR)
Your satellite tracking list
Your tracking list is empty




NASA's NSSDC Master Catalog

Two Line Element Set (TLE):
1 45703U 20035AY  25199.68420945  .00047319  00000-0  17079-2 0  9993
2 45703  53.0463 345.7675 0005853  67.9672 292.1947 15.28048374283770
Source of the keplerian elements: AFSPC